Location: UMBC
(39.2555°N, 76.7093°W)
Time: 15:22:17
(UTC+01:00)

Amateur Radio Satellites - All Passes

Search period start: 27 January 2015 14:52
Search period end: 28 January 2015 14:52
Location: UMBC, 39.2555°N, 76.7093°W

Satellite Date Start Highest point End Downlink Frequencies (MHz)
Time Altitude Azimuth
BRITE-PL 27 Jan 14:54:24 15:00:09 90° 298° (WNW) 15:05:40 437.365/2234.400
Oscar 11 27 Jan 14:55:13 14:58:14 19° 92° (E) 15:01:21 145.826/435.025
HO-68 27 Jan 14:56:59 15:04:07 68° 103° (ESE) 15:11:15 435.675
AAUSAT CUBESAT 2 27 Jan 14:57:55 15:01:52 42° 98° (E) 15:05:49 437.432
CUTE 1.7 + AOD 2 27 Jan 15:01:18 15:05:33 79° 103° (ESE) 15:09:46 437.475
GOMX 1 27 Jan 15:01:57 15:07:27 77° 101° (E) 15:12:41 467.674
ANTELSAT 27 Jan 15:03:39 15:07:19 23° 69° (ENE) 15:11:05 437.575/2403.000
DELFI C3 27 Jan 15:07:12 15:10:07 20° 93° (E) 15:13:09 145.870
TIGRISAT 27 Jan 15:12:29 15:16:26 28° 70° (ENE) 15:20:28 435.000
POPSAT HIP 1 27 Jan 15:13:36 15:16:07 16° 67° (ENE) 15:18:50 437.405
DUCHIFAT 1 27 Jan 15:17:26 15:20:09 17° 67° (ENE) 15:23:02 145.980
CUBEBUG 2 27 Jan 15:21:08 15:24:59 27° 94° (E) 15:28:47 437.445
VERMONT LUNAR 27 Jan 15:23:32 15:26:45 36° 155° (SSE) 15:30:01 437.305
DOVE 4 27 Jan 15:25:17 15:30:35 87° 283° (WNW) 15:35:35 437.250
UKube-1 27 Jan 15:28:53 15:32:27 25° 95° (E) 15:36:04 .
CINEMA 3 27 Jan 15:29:38 15:34:29 59° 100° (E) 15:39:05 145.822/145.860
SEEDS 27 Jan 15:35:24 15:39:28 48° 286° (WNW) 15:43:29 437.485
ZACube-1 27 Jan 15:38:53 15:42:43 28° 95° (E) 15:46:30 437.345
DX 1 27 Jan 15:46:29 15:50:39 41° 99° (E) 15:54:49 434.975-435.025
NANOSAT C BR1 27 Jan 15:50:05 15:54:02 39° 72° (ENE) 15:58:04 145.865
FUNcube-1 27 Jan 15:51:26 15:55:35 38° 97° (E) 15:59:38 145.935
50 SAT 27 Jan 15:58:04 16:00:43 17° 92° (E) 16:03:29 437.505
HUMSAT D 27 Jan 16:00:01 16:03:33 25° 94° (E) 16:07:05 437.325/437.525
AISAT 27 Jan 16:00:31 16:03:59 22° 94° (E) 16:07:33 437.250
QB50P2 27 Jan 16:02:48 16:06:59 56° 74° (ENE) 16:11:13 145.880/145.840
UNISAT 6 27 Jan 16:03:17 16:08:01 85° 258° (WSW) 16:12:45 437.425
RS-15 27 Jan 16:03:18 16:10:06 17° 359° (N) 16:17:01 29.354- 29.394
UWE-3 27 Jan 16:05:37 16:10:09 70° 100° (E) 16:14:31 435.000/436.395/437.385
COMPASS 1 27 Jan 16:05:45 16:09:17 27° 289° (WNW) 16:12:45 437.405
PHONESAT 2.4 27 Jan 16:08:33 16:12:00 43° 157° (SSE) 16:15:28 2401.200-2431.200
QB50P1 27 Jan 16:12:53 16:17:08 73° 76° (ENE) 16:21:26 145.935-145.965
CANX-2 27 Jan 16:14:03 16:16:36 15° 293° (WNW) 16:18:59 2200.000
BEESAT 2 27 Jan 16:24:11 16:25:55 12° 41° (NE) 16:27:46 435.950
POLYITAN 1 27 Jan 16:26:04 16:30:22 78° 260° (W) 16:34:42 437.675
VELOX 1 27 Jan 16:29:24 16:33:43 44° 99° (E) 16:38:01 145.980
Oscar 11 27 Jan 16:30:37 16:34:34 35° 288° (WNW) 16:38:26 145.826/435.025
AAUSAT CUBESAT 2 27 Jan 16:34:43 16:37:15 15° 293° (WNW) 16:39:37 437.432
BRITE-PL 27 Jan 16:35:13 16:37:54 13° 299° (WNW) 16:40:15 437.365/2234.400
BUGSAT 1 27 Jan 16:36:49 16:40:54 77° 258° (WSW) 16:45:04 437.445
ANTELSAT 27 Jan 16:39:37 16:43:58 35° 264° (W) 16:48:16 437.575/2403.000
BEESAT 3 27 Jan 16:39:49 16:42:43 18° 45° (NE) 16:45:41 437.485
DELFI C3 27 Jan 16:41:54 16:45:27 29° 289° (WNW) 16:48:55 145.870
GOMX 1 27 Jan 16:41:56 16:44:55 15° 297° (WNW) 16:47:34 467.674
CUBEBUG 1 27 Jan 16:45:06 16:48:50 27° 95° (E) 16:52:38 437.445
SO-50 27 Jan 16:45:37 16:50:07 69° 120° (ESE) 16:54:48 436.795
HO-68 27 Jan 16:45:49 16:51:19 24° 300° (WNW) 16:56:36 435.675
AIST 1 27 Jan 16:47:20 16:50:29 21° 89° (E) 16:53:47
POPSAT HIP 1 27 Jan 16:47:38 16:51:43 44° 262° (W) 16:55:50 437.405
TIGRISAT 27 Jan 16:49:02 16:53:09 29° 265° (W) 16:57:12 435.000
DUCHIFAT 1 27 Jan 16:51:44 16:55:45 39° 262° (W) 16:59:47 145.980
GONETS M04 27 Jan 16:54:44 16:59:20 16° 59° (ENE) 17:04:30
CUBEBUG 2 27 Jan 16:57:44 17:01:40 27° 291° (WNW) 17:05:25 437.445
VERMONT LUNAR 27 Jan 17:01:15 17:04:46 80° 353° (N) 17:08:17 437.305
UKube-1 27 Jan 17:04:52 17:08:37 28° 291° (WNW) 17:12:17 .
DOVE 4 27 Jan 17:06:00 17:07:33 11° 299° (WNW) 17:08:48 437.250
CINEMA 3 27 Jan 17:08:20 17:11:11 15° 296° (WNW) 17:13:46 145.822/145.860
ZACube-1 27 Jan 17:15:22 17:19:01 25° 291° (WNW) 17:22:31 437.345
DX 1 27 Jan 17:23:36 17:26:38 18° 293° (WNW) 17:29:31 434.975-435.025
TISAT 1 27 Jan 17:25:15 17:27:58 17° 92° (E) 17:30:47 437.305
NANOSAT C BR1 27 Jan 17:27:20 17:30:08 17° 269° (W) 17:32:49 145.865
FUNcube-1 27 Jan 17:28:31 17:31:40 19° 293° (WNW) 17:34:38 145.935
ESTCUBE 1 27 Jan 17:31:52 17:36:26 85° 284° (WNW) 17:40:58 437.505/2401.250
50 SAT 27 Jan 17:32:18 17:36:00 33° 288° (WNW) 17:39:36 437.505
HUMSAT D 27 Jan 17:35:47 17:39:18 25° 290° (WNW) 17:42:41 437.325/437.525
AISAT 27 Jan 17:36:38 17:40:42 33° 289° (WNW) 17:44:42 437.250
QB50P2 27 Jan 17:41:45 17:43:21 11° 271° (W) 17:44:42 145.880/145.840
Oscar 19 27 Jan 17:42:05 17:45:46 21° 66° (ENE) 17:49:36 437.125/150
UWE-3 27 Jan 17:44:35 17:46:08 11° 297° (WNW) 17:47:26 435.000/436.395/437.385
AIST 2 27 Jan 17:44:57 17:48:44 30° 50° (NE) 17:52:30 435.215
PHONESAT 2.4 27 Jan 17:46:53 17:50:30 77° 353° (N) 17:54:10 2401.200-2431.200
BEESAT 2 27 Jan 18:00:34 18:04:45 82° 241° (WSW) 18:08:52 435.950
VELOX 1 27 Jan 18:07:00 18:10:00 17° 294° (WNW) 18:12:51 145.980
SPROUT 27 Jan 18:15:00 18:19:21 64° 101° (E) 18:23:40 437.525
BEESAT 3 27 Jan 18:17:08 18:21:08 45° 243° (WSW) 18:25:03 437.485
RS-15 27 Jan 18:18:12 18:27:39 30° 33° (NNE) 18:37:40 29.354- 29.394
CUBEBUG 1 27 Jan 18:21:25 18:25:11 27° 290° (WNW) 18:28:52 437.445
AIST 1 27 Jan 18:24:22 18:28:03 27° 285° (WNW) 18:31:42
SWISSCUBE 27 Jan 18:25:24 18:27:20 13° 89° (E) 18:29:33 437.505
SO-50 27 Jan 18:28:10 18:31:14 17° 319° (NW) 18:34:14 436.795
Gurwin Techsat 1B 27 Jan 18:37:58 18:41:10 17° 64° (ENE) 18:44:35 435.225
VERMONT LUNAR 27 Jan 18:39:29 18:43:00 77° 8° (N) 18:46:33 437.305
BEESAT 27 Jan 18:40:44 18:43:47 17° 91° (E) 18:47:00 436.000
ITUPSAT 1 27 Jan 18:43:08 18:46:18 18° 92° (E) 18:49:38 437.325
GONETS M04 27 Jan 18:49:08 18:57:53 82° 82° (E) 19:06:35
TISAT 1 27 Jan 18:59:58 19:03:59 39° 288° (WNW) 19:07:59 437.305
PCSat 27 Jan 19:14:43 19:19:33 32° 52° (NE) 19:24:24 145.827
Oscar 19 27 Jan 19:19:47 19:24:49 48° 261° (W) 19:29:51 437.125/150
AIST 2 27 Jan 19:23:41 19:27:17 26° 247° (WSW) 19:30:45 435.215
PHONESAT 2.4 27 Jan 19:25:33 19:29:12 83° 9° (N) 19:32:53 2401.200-2431.200
ITAMSAT 1 27 Jan 19:30:50 19:35:59 76° 75° (ENE) 19:41:11 435.822/435.867
KKS-1 27 Jan 19:37:26 19:39:09 12° 89° (E) 19:41:07 437.445
AO-7 27 Jan 19:39:45 19:45:37 23° 55° (NE) 19:51:47 29.400- 29.500
SPROUT 27 Jan 19:53:20 19:54:59 12° 295° (WNW) 19:56:23 437.525
SWISSCUBE 27 Jan 20:00:59 20:05:44 63° 285° (WNW) 20:10:26 437.505
Gurwin Techsat 1B 27 Jan 20:15:26 20:20:42 62° 259° (W) 20:25:59 435.225
BEESAT 27 Jan 20:17:22 20:21:56 46° 288° (WNW) 20:26:29 436.000
VERMONT LUNAR 27 Jan 20:17:43 20:21:03 40° 204° (SSW) 20:24:22 437.305
ITUPSAT 1 27 Jan 20:19:54 20:24:29 45° 288° (WNW) 20:29:01 437.325
HORYU 2 27 Jan 20:21:28 20:25:49 49° 73° (ENE) 20:30:10 437.375
DANDE 27 Jan 20:26:30 20:31:28 21° 60° (ENE) 20:35:47 436.750
RS-15 27 Jan 20:30:24 20:41:51 89° 63° (ENE) 20:53:50 29.354- 29.394
M-CUBED/EXP-1 PRIME 27 Jan 20:37:12 20:37:30 10° 96° (E) 20:38:00 437.505
GONETS M04 27 Jan 20:48:03 20:53:48 19° 279° (W) 20:59:02
PCSat 27 Jan 20:58:05 21:03:00 35° 250° (WSW) 21:07:51 145.827
PHONESAT 2.4 27 Jan 21:04:17 21:07:39 35° 206° (SSW) 21:11:00 2401.200-2431.200
CUSAT 1 27 Jan 21:06:06 21:12:24 49° 73° (ENE) 21:17:07 437.405
AUBIESAT-1 27 Jan 21:09:57 21:12:45 25° 102° (ESE) 21:15:39 437.475
STARS 27 Jan 21:10:04 21:14:33 88° 101° (ESE) 21:18:59 437.465
KKS-1 27 Jan 21:11:50 21:16:16 58° 286° (WNW) 21:20:39 437.445
ITAMSAT 1 27 Jan 21:14:14 21:16:11 12° 272° (W) 21:17:48 435.822/435.867
AO-7 27 Jan 21:29:11 21:37:35 84° 253° (WSW) 21:46:01 29.400- 29.500
JAS-2 27 Jan 21:48:54 21:54:25 60° 74° (ENE) 21:59:36 435.910
HORYU 2 27 Jan 22:00:10 22:02:49 15° 269° (W) 22:05:16 437.375
DANDE 27 Jan 22:09:04 22:15:49 56° 267° (W) 22:20:48 436.750
M-CUBED/EXP-1 PRIME 27 Jan 22:09:40 22:12:46 36° 292° (WNW) 22:15:54 437.505
O/OREOS (USA 219) 27 Jan 22:13:26 22:17:43 48° 107° (ESE) 22:22:05 437.305
MOZHAYETS 4 27 Jan 22:36:16 22:40:36 43° 98° (E) 22:44:58
RS-15 27 Jan 22:44:43 22:53:10 23° 257° (WSW) 23:01:10 29.354- 29.394
AUBIESAT-1 27 Jan 22:45:30 22:47:35 15° 296° (WNW) 22:49:35 437.475
CUSAT 1 27 Jan 22:50:22 22:54:40 19° 278° (W) 22:58:06 437.405
Cubesat XI-IV 27 Jan 22:58:12 23:03:03 38° 70° (ENE) 23:07:59 437.490
CUTE-I 27 Jan 23:18:23 23:23:34 58° 73° (ENE) 23:28:50 437.470
AO-7 27 Jan 23:26:56 23:31:44 15° 273° (W) 23:35:55 29.400- 29.500
JAS-2 27 Jan 23:36:44 23:40:02 15° 269° (W) 23:42:55 435.910
PRISM 27 Jan 23:39:21 23:42:14 19° 93° (E) 23:45:14 437.425
STRAND 1 27 Jan 23:45:09 23:47:04 12° 88° (E) 23:49:18 437.568
O/OREOS (USA 219) 27 Jan 23:54:29 23:57:29 17° 305° (NW) 00:00:22 437.305
YUBILEINY 27 Jan 23:56:18 23:59:09 12° 77° (ENE) 00:02:44 435.215
MOZHAYETS 4 28 Jan 00:14:26 00:17:34 18° 293° (WNW) 00:20:34
CUBESAT XI-V 28 Jan 00:23:07 00:27:35 43° 98° (E) 00:32:05 437.345
BRITE-PL 28 Jan 00:29:37 00:31:04 11° 60° (ENE) 00:32:50 437.365/2234.400
Cubesat XI-IV 28 Jan 00:38:53 00:43:17 25° 266° (W) 00:47:37 437.490
DOVE 4 28 Jan 00:56:38 00:57:15 10° 61° (ENE) 00:58:11 437.250
CUTE-I 28 Jan 01:00:43 01:04:08 17° 270° (W) 01:07:19 437.470
PRISM 28 Jan 01:14:08 01:17:52 33° 289° (WNW) 01:21:34 437.425
SO-50 28 Jan 01:18:04 01:22:50 48° 53° (NE) 01:27:36 436.795
STRAND 1 28 Jan 01:21:45 01:26:54 73° 286° (WNW) 01:32:02 437.568
COMPASS 1 28 Jan 01:21:53 01:24:19 15° 67° (ENE) 01:26:52 437.405
HO-68 28 Jan 01:24:20 01:31:00 45° 67° (ENE) 01:37:45 435.675
CANX-2 28 Jan 01:29:14 01:32:54 29° 71° (ENE) 01:36:38 2200.000
YUBILEINY 28 Jan 01:46:03 01:54:41 76° 95° (E) 02:03:23 435.215
AAUSAT CUBESAT 2 28 Jan 01:48:26 01:51:55 26° 70° (ENE) 01:55:28 437.432
Oscar 11 28 Jan 01:50:09 01:52:22 14° 66° (ENE) 01:54:46 145.826/435.025
CUTE 1.7 + AOD 2 28 Jan 01:53:09 01:57:17 48° 74° (ENE) 02:01:27 437.475
DELFI C3 28 Jan 01:56:12 01:57:43 12° 66° (ENE) 01:59:26 145.870
CUBESAT XI-V 28 Jan 02:01:27 02:04:46 19° 293° (WNW) 02:07:56 437.345
BRITE-PL 28 Jan 02:03:47 02:08:44 89° 61° (ENE) 02:14:08 437.365/2234.400
GOMX 1 28 Jan 02:08:29 02:13:27 71° 75° (ENE) 02:18:46 467.674
CUBEBUG 2 28 Jan 02:18:35 02:22:10 22° 68° (ENE) 02:25:54 437.445
UKube-1 28 Jan 02:23:35 02:26:39 20° 67° (ENE) 02:29:51 .
SEEDS 28 Jan 02:26:13 02:30:30 82° 260° (W) 02:34:46 437.485
JUGNU 28 Jan 02:26:16 02:27:30 11° 184° (S) 02:28:43 437.505
DOVE 4 28 Jan 02:29:14 02:34:12 83° 75° (ENE) 02:39:28 437.250
CINEMA 3 28 Jan 02:29:51 02:34:33 49° 73° (ENE) 02:39:24 145.822/145.860
ZACube-1 28 Jan 02:34:13 02:37:41 22° 69° (ENE) 02:41:18 437.345
DX 1 28 Jan 02:41:23 02:45:11 31° 70° (ENE) 02:49:05 434.975-435.025
FUNcube-1 28 Jan 02:46:19 02:50:13 29° 70° (ENE) 02:54:14 145.935
50 SAT 28 Jan 02:46:40 02:47:34 11° 65° (ENE) 02:48:41 437.505
HUMSAT D 28 Jan 02:51:50 02:54:43 18° 68° (ENE) 02:57:44 437.325/437.525
COMPASS 1 28 Jan 02:55:39 02:59:43 44° 262° (W) 03:03:46 437.405
AISAT 28 Jan 02:58:17 03:01:18 19° 67° (ENE) 03:04:28 437.250
SO-50 28 Jan 02:59:25 03:03:07 21° 249° (WSW) 03:06:40 436.795
UWE-3 28 Jan 03:01:23 03:05:54 51° 73° (ENE) 03:10:29 435.000/436.395/437.385
SRMSAT 28 Jan 03:02:51 03:04:23 11° 179° (S) 03:05:57 437.500
CANX-2 28 Jan 03:05:24 03:08:52 23° 266° (W) 03:12:16 2200.000
HO-68 28 Jan 03:12:32 03:18:54 33° 264° (W) 03:25:10 435.675
Oscar 11 28 Jan 03:23:56 03:28:11 51° 261° (W) 03:32:26 145.826/435.025
AAUSAT CUBESAT 2 28 Jan 03:24:05 03:27:34 24° 266° (W) 03:30:59 437.432
VELOX 1 28 Jan 03:26:24 03:30:23 35° 71° (ENE) 03:34:28 145.980
DELFI C3 28 Jan 03:28:34 03:32:34 54° 260° (W) 03:36:35 145.870
CUTE 1.7 + AOD 2 28 Jan 03:31:18 03:33:34 13° 270° (W) 03:35:37 437.475
CUBEBUG 1 28 Jan 03:41:05 03:44:13 20° 68° (ENE) 03:47:29 437.445
YUBILEINY 28 Jan 03:45:59 03:52:35 22° 296° (WNW) 03:58:50 435.215
GOMX 1 28 Jan 03:49:57 03:52:18 13° 274° (W) 03:54:23 467.674
QB50P2 28 Jan 03:52:49 03:53:02 10° 88° (E) 03:53:34 145.880/145.840
CUBEBUG 2 28 Jan 03:54:16 03:58:40 37° 264° (W) 04:03:06 437.445
UNISAT 6 28 Jan 03:57:39 04:01:01 21° 93° (E) 04:04:26 437.425
UKube-1 28 Jan 03:58:38 04:02:37 35° 262° (W) 04:06:36 .
QB50P1 28 Jan 04:01:11 04:03:09 13° 90° (E) 04:05:20 145.935-145.965
CINEMA 3 28 Jan 04:08:41 04:12:05 18° 270° (W) 04:15:22 145.822/145.860
ZACube-1 28 Jan 04:09:40 04:13:53 35° 264° (W) 04:18:08 437.345
DOVE 4 28 Jan 04:11:41 04:12:49 10° 275° (W) 04:13:34 437.250
POLYITAN 1 28 Jan 04:13:54 04:16:56 19° 92° (E) 04:20:05 437.675
ISS 28 Jan 04:14:35 04:17:50 64° 138° (SE) 04:21:06 145.825
50 SAT 28 Jan 04:18:07 04:22:13 64° 259° (W) 04:26:21 437.505
DX 1 28 Jan 04:18:08 04:21:32 21° 266° (W) 04:24:50 434.975-435.025
TISAT 1 28 Jan 04:18:22 04:19:51 12° 65° (ENE) 04:21:33 437.305
BUGSAT 1 28 Jan 04:21:23 04:24:11 17° 92° (E) 04:27:08 437.445
FUNcube-1 28 Jan 04:22:40 04:26:33 26° 266° (W) 04:30:24 145.935
HUMSAT D 28 Jan 04:26:09 04:30:15 39° 262° (W) 04:34:21 437.325/437.525
ESTCUBE 1 28 Jan 04:30:28 04:34:56 78° 77° (ENE) 04:39:27 437.505/2401.250
AIST 1 28 Jan 04:31:49 04:36:08 61° 81° (E) 04:40:27
ANTELSAT 28 Jan 04:32:47 04:37:10 53° 99° (E) 04:41:26 437.575/2403.000
AISAT 28 Jan 04:33:30 04:37:41 40° 262° (W) 04:41:53 437.250
POPSAT HIP 1 28 Jan 04:34:17 04:38:07 31° 96° (E) 04:41:59 437.405
DUCHIFAT 1 28 Jan 04:37:54 04:41:49 34° 97° (E) 04:45:45 145.980
UWE-3 28 Jan 04:39:56 04:42:48 15° 270° (W) 04:45:29 435.000/436.395/437.385
TIGRISAT 28 Jan 04:41:31 04:45:59 66° 101° (E) 04:50:18 435.000
VELOX 1 28 Jan 05:03:49 05:07:07 20° 267° (W) 05:10:20 145.980
SPROUT 28 Jan 05:08:16 05:12:20 42° 73° (ENE) 05:16:27 437.525
NANOSAT C BR1 28 Jan 05:11:49 05:16:09 87° 102° (ESE) 05:20:27 145.865
CUBEBUG 1 28 Jan 05:16:27 05:20:24 34° 263° (W) 05:24:24 437.445
QB50P2 28 Jan 05:25:12 05:29:30 64° 285° (WNW) 05:33:44 145.880/145.840
SWISSCUBE 28 Jan 05:31:28 05:33:51 14° 64° (ENE) 05:36:26 437.505
UNISAT 6 28 Jan 05:33:55 05:37:56 32° 289° (WNW) 05:41:47 437.425
QB50P1 28 Jan 05:35:14 05:39:25 50° 286° (WNW) 05:43:33 145.935-145.965
BEESAT 28 Jan 05:46:41 05:49:54 19° 66° (ENE) 05:53:15 436.000
POLYITAN 1 28 Jan 05:49:04 05:53:02 35° 289° (WNW) 05:56:55 437.675
ITUPSAT 1 28 Jan 05:49:24 05:52:42 20° 66° (ENE) 05:56:10 437.325
TISAT 1 28 Jan 05:51:03 05:55:13 60° 259° (W) 05:59:27 437.305
ISS 28 Jan 05:52:05 05:54:36 20° 337° (NNW) 05:57:07 145.825
BUGSAT 1 28 Jan 05:55:53 05:59:52 38° 288° (WNW) 06:03:49 437.445
GONETS M04 28 Jan 05:55:57 06:01:08 18° 81° (E) 06:06:49
POPSAT HIP 1 28 Jan 06:10:32 06:13:52 21° 292° (WNW) 06:17:06 437.405
ANTELSAT 28 Jan 06:11:06 06:13:33 14° 295° (WNW) 06:15:46 437.575/2403.000
AIST 1 28 Jan 06:12:48 06:13:20 10° 274° (W) 06:13:34
DUCHIFAT 1 28 Jan 06:14:18 06:17:30 20° 292° (WNW) 06:20:33 145.980
TIGRISAT 28 Jan 06:20:29 06:22:13 12° 296° (WNW) 06:23:42 435.000
KKS-1 28 Jan 06:36:02 06:37:08 11° 63° (ENE) 06:38:29 437.445
SPROUT 28 Jan 06:46:02 06:48:42 15° 269° (W) 06:51:13 437.525
SWISSCUBE 28 Jan 07:06:34 07:11:17 62° 259° (W) 07:16:00 437.505
BEESAT 28 Jan 07:22:54 07:27:28 45° 261° (W) 07:32:02 436.000
M-CUBED/EXP-1 PRIME 28 Jan 07:24:15 07:26:50 17° 65° (ENE) 07:29:25 437.505
ITUPSAT 1 28 Jan 07:25:49 07:30:21 43° 262° (W) 07:34:53 437.325
Oscar 19 28 Jan 07:32:15 07:37:23 65° 101° (E) 07:42:29 437.125/150
ITAMSAT 1 28 Jan 07:45:11 07:49:42 29° 95° (E) 07:54:15 435.822/435.867
GONETS M04 28 Jan 07:48:14 07:57:02 84° 278° (W) 08:05:49
BEESAT 2 28 Jan 07:55:02 07:58:21 24° 113° (ESE) 08:01:47 435.950
AUBIESAT-1 28 Jan 07:57:35 08:01:18 35° 69° (ENE) 08:04:47 437.475
STARS 28 Jan 08:05:57 08:10:21 68° 76° (ENE) 08:14:48 437.465
KKS-1 28 Jan 08:08:47 08:13:15 74° 258° (WSW) 08:17:45 437.445
BEESAT 3 28 Jan 08:10:10 08:14:01 41° 116° (ESE) 08:17:56 437.485
O/OREOS (USA 219) 28 Jan 08:24:11 08:28:48 79° 68° (ENE) 08:33:24 437.305
CUSAT 1 28 Jan 08:32:35 08:35:45 13° 80° (E) 08:39:38 437.405
Gurwin Techsat 1B 28 Jan 08:32:41 08:37:55 58° 100° (E) 08:43:10 435.225
RS-15 28 Jan 08:50:15 08:52:22 11° 99° (E) 08:55:41 29.354- 29.394
M-CUBED/EXP-1 PRIME 28 Jan 08:57:48 09:01:40 36° 256° (WSW) 09:05:14 437.505
ISS 28 Jan 09:07:55 09:09:47 14° 17° (NNE) 09:11:42 145.825
Oscar 19 28 Jan 09:13:13 09:16:16 15° 297° (WNW) 09:19:04 437.125/150
AIST 2 28 Jan 09:20:01 09:24:16 86° 121° (ESE) 09:28:35 435.215
ITAMSAT 1 28 Jan 09:24:33 09:29:12 32° 291° (WNW) 09:33:47 435.822/435.867
AO-7 28 Jan 09:32:32 09:39:55 35° 97° (E) 09:47:24 29.400- 29.500
BEESAT 2 28 Jan 09:32:48 09:36:29 30° 310° (NW) 09:40:11 435.950
AUBIESAT-1 28 Jan 09:33:41 09:36:20 16° 261° (W) 09:38:43 437.475
DANDE 28 Jan 09:33:52 09:40:49 35° 88° (E) 09:48:29 436.750
MOZHAYETS 4 28 Jan 09:37:21 09:41:31 36° 72° (ENE) 09:45:45
STARS 28 Jan 09:46:38 09:47:24 10° 272° (W) 09:47:52 437.465
BEESAT 3 28 Jan 09:49:16 09:52:22 20° 314° (NW) 09:55:24 437.485
GONETS M04 28 Jan 09:50:05 09:55:30 16° 300° (WNW) 10:00:22
HORYU 2 28 Jan 09:50:26 09:54:53 69° 285° (WNW) 09:59:16 437.375
PCSat 28 Jan 09:55:29 10:00:17 34° 110° (ESE) 10:05:11 145.827
CUSAT 1 28 Jan 10:09:38 10:17:34 70° 95° (E) 10:26:01 437.405
Gurwin Techsat 1B 28 Jan 10:13:54 10:17:30 18° 296° (WNW) 10:20:54 435.225
PRISM 28 Jan 10:30:20 10:32:10 13° 66° (ENE) 10:34:12 437.425
JAS-2 28 Jan 10:42:14 10:47:49 60° 101° (E) 10:54:07 435.910
ISS 28 Jan 10:43:35 10:46:52 59° 35° (NE) 10:50:08 145.825
RS-15 28 Jan 10:52:13 11:02:56 66° 115° (ESE) 11:13:45 29.354- 29.394
STRAND 1 28 Jan 10:59:43 11:02:56 18° 64° (ENE) 11:06:19 437.568
AIST 2 28 Jan 11:01:39 11:03:34 12° 320° (NW) 11:05:20 435.215
MOZHAYETS 4 28 Jan 11:15:25 11:18:54 20° 268° (W) 11:22:16
DANDE 28 Jan 11:16:05 11:24:01 55° 286° (WNW) 11:32:30 436.750
Cubesat XI-IV 28 Jan 11:17:34 11:20:47 16° 90° (E) 11:24:15 437.490
AO-7 28 Jan 11:25:00 11:32:59 50° 295° (WNW) 11:40:50 29.400- 29.500
CUBESAT XI-V 28 Jan 11:25:44 11:29:56 37° 72° (ENE) 11:34:12 437.345
CUTE-I 28 Jan 11:37:08 11:41:29 25° 94° (E) 11:45:56 437.470
PCSat 28 Jan 11:38:50 11:43:43 33° 308° (NW) 11:48:35 145.827
CUSAT 1 28 Jan 11:54:28 12:01:22 28° 295° (WNW) 12:08:13 437.405
YUBILEINY 28 Jan 11:57:51 12:05:38 35° 71° (ENE) 12:13:35 435.215
PRISM 28 Jan 12:03:20 12:07:20 50° 260° (W) 12:11:21 437.425
ISS 28 Jan 12:21:17 12:23:05 14° 230° (SW) 12:24:46 145.825
JAS-2 28 Jan 12:28:39 12:32:41 20° 294° (WNW) 12:36:47 435.910
STRAND 1 28 Jan 12:36:44 12:41:44 56° 260° (W) 12:46:46 437.568
Cubesat XI-IV 28 Jan 12:56:04 13:01:22 59° 287° (WNW) 13:06:39 437.490
CUBESAT XI-V 28 Jan 13:04:08 13:07:33 20° 268° (W) 13:10:52 437.345
RS-15 28 Jan 13:06:02 13:16:05 39° 319° (NW) 13:26:09 29.354- 29.394
DANDE 28 Jan 13:06:48 13:09:46 11° 307° (NW) 13:12:04 436.750
CUTE-I 28 Jan 13:16:42 13:21:42 39° 290° (WNW) 13:26:39 437.470
AO-7 28 Jan 13:22:17 13:24:00 10° 315° (NW) 13:25:10 29.400- 29.500
YUBILEINY 28 Jan 13:54:24 14:02:45 49° 270° (W) 14:11:01 435.215
BRITE-PL 28 Jan 14:10:05 14:15:16 36° 95° (E) 14:20:18 437.365/2234.400
GOMX 1 28 Jan 14:12:24 14:16:50 26° 92° (E) 14:21:12 467.674
SEEDS 28 Jan 14:13:04 14:15:52 18° 92° (E) 14:18:46 437.485
CINEMA 3 28 Jan 14:28:21 14:30:25 13° 87° (E) 14:32:43 145.822/145.860
DOVE 4 28 Jan 14:30:33 14:34:54 27° 93° (E) 14:39:08 437.250
COMPASS 1 28 Jan 14:40:45 14:44:25 30° 96° (E) 14:48:07 437.405
VERMONT LUNAR 28 Jan 14:41:29 14:44:32 29° 153° (SSE) 14:47:38 437.305
